Weather History for Cumshewa Island, BC

Change the Weather History Date:

Sunday, February 3, 2013

  Actual Average Record
Temperature  
Mean Temperature 41 °F -  
Max Temperature 45 °F - - ()
Min Temperature 37 °F - - ()
Degree Days  
Heating Degree Days 24    
Moisture  
Dew Point 39 °F    
Average Humidity 83    
Maximum Humidity 91    
Minimum Humidity 68    
Precipitation  
Precipitation 0.00 in - - ()
Sea Level Pressure  
Sea Level Pressure 29.98 in    
Wind  
Wind Speed 13 mph ()    
Max Wind Speed 30 mph    
Max Gust Speed -    
T = Trace of Precipitation, MM = Missing Value Source: Averaged Metar Reports

Daily Weather History Graph

Daily Weather History Graph

Search for Another Location

Airport:

Trip Planner

Search our weather history database for the weather conditions in past years. The results will help you decide how hot, cold, wet, or windy it might be!

Date:

Astronomy

Feb. 03, 2013 Rise Set
Actual Time 8:25 AM PST 5:35 PM PST
Civil Twilight 7:48 AM PST 6:12 PM PST
Nautical Twilight 7:07 AM PST 6:54 PM PST
Astronomical Twilight 6:26 AM PST 7:34 PM PST
Moon 2:05 AM PST (2/3) 11:11 AM PST (2/3)
Length of Visible Light 10h 24m
Length of Day
9h 09m
Waning Gibbous, 47% of the Moon is Illuminated
Feb 3
Waning Gibbous
Feb 9
New
Feb 17
First Quarter
Feb 25
Full
Mar 4
Last Quarter

Hourly Weather History & Observations

Time (PST) Temp. Windchill Dew Point Humidity Pressure Visibility Wind Dir Wind Speed Gust Speed Precip Events Conditions
12:00 AM 44.4 °F 42.9 °F 38.8 °F 81% 30.11 in - South 3.5 mph - N/A   Unknown
1:00 AM 44.6 °F 38.4 °F 40.1 °F 84% 30.10 in - SSE 12.7 mph - N/A   Unknown
2:00 AM 44.2 °F 37.3 °F 39.9 °F 85% 30.07 in - South 15.0 mph - N/A   Unknown
3:00 AM 44.6 °F 36.6 °F 40.1 °F 84% 30.06 in - South 19.6 mph - N/A   Unknown
4:00 AM 45 °F - 40 °F 77% 30.05 in - South 18.4 mph - -  
4:00 AM 45.0 °F 37.4 °F 40.1 °F 83% 30.05 in - South 18.4 mph - N/A   Unknown
5:00 AM 45.0 °F 37.4 °F 40.3 °F 84% 30.02 in - South 18.4 mph - N/A   Unknown
6:00 AM 44.4 °F 37.9 °F 40.6 °F 87% 30.00 in - South 13.8 mph - N/A   Unknown
7:00 AM 45.3 °F 36.1 °F 40.8 °F 84% 29.96 in - South 27.6 mph - N/A   Unknown
8:00 AM 44.8 °F 35.0 °F 40.5 °F 85% 29.94 in - South 29.9 mph - N/A   Unknown
9:00 AM 44.4 °F 34.7 °F 40.5 °F 86% 29.93 in - South 28.8 mph - N/A   Unknown
10:00 AM 44 °F - 41 °F 87% 29.92 in - South 21.9 mph - -  
10:00 AM 44.4 °F 35.9 °F 41.4 °F 89% 29.92 in - South 21.9 mph - N/A   Unknown
11:00 AM 44.1 °F 35.9 °F 40.8 °F 88% 29.91 in - South 19.6 mph - N/A   Unknown
12:00 PM 44.1 °F 35.4 °F 40.3 °F 87% 29.88 in - South 21.9 mph - N/A   Unknown
1:00 PM 44.8 °F 38.0 °F 41.0 °F 87% 29.90 in - South 15.0 mph - N/A   Unknown
2:00 PM 44.4 °F 40.5 °F 40.6 °F 87% 29.91 in - NW 6.9 mph - N/A   Unknown
3:00 PM 44.4 °F 40.5 °F 39.0 °F 81% 29.93 in - NNW 6.9 mph - N/A   Unknown
4:00 PM 44 °F - 37 °F 68% 29.95 in - NNW 10.4 mph - -  
4:00 PM 44.1 °F 38.6 °F 37.0 °F 76% 29.95 in - NNW 10.4 mph - N/A   Unknown
5:00 PM 43.2 °F 37.0 °F 36.1 °F 76% 29.96 in - WNW 11.5 mph - N/A   Unknown
6:00 PM 41.9 °F 36.9 °F 34.3 °F 75% 29.97 in - NW 8.1 mph - N/A   Unknown
7:00 PM 40.1 °F 35.3 °F 35.6 °F 84% 29.99 in - West 6.9 mph - N/A   Unknown
8:00 PM 40.5 °F 35.8 °F 35.8 °F 83% 29.98 in - WNW 6.9 mph - N/A   Unknown
9:00 PM 40.1 °F 36.9 °F 34.5 °F 80% 29.98 in - WNW 4.6 mph - N/A   Unknown
10:00 PM 38 °F - 35 °F 85% 29.99 in - West 5.8 mph - -  
10:00 PM 37.9 °F 33.5 °F 35.1 °F 89% 29.99 in - West 5.8 mph - N/A   Unknown
11:00 PM 37.4 °F 32.1 °F 35.1 °F 91% 30.01 in - West 6.9 mph - N/A   Unknown